Simultaneous Nadir Overpasses (SNOs) Predictions

Prediction of SNOs between FY3D and TERRA Satellite Orbit:

Table of predicted SNOs for the next 14.0 days since TLE Epoch: 8/5/2023
Index Date (FY3D) Time (FY3D) Lat,Lon (FY3D) SZA (FY3D ) Date (TERRA) Time (TERRA) Lat,Lon (TERRA) SZA (TERRA ) Distance(km) Time Diff (sec)
1 08/05/2023 12:52:58 -73.82, 166.80 123.21 08/05/2023 12:53:16 -73.84, 166.76 123.20 1.90 18
2 08/05/2023 13:43:44 73.76, -25.75 56.74 08/05/2023 13:42:39 73.75, -25.77 56.72 1.74 65
3 08/08/2023 00:57:05 73.86, 165.72 57.52 08/08/2023 00:57:13 73.85, 165.78 57.51 2.05 8
4 08/08/2023 01:47:47 -73.75, -26.70 122.59 08/08/2023 01:46:38 -73.75, -26.78 122.58 2.58 69
5 08/10/2023 12:10:33 74.30, -3.71 58.69 08/10/2023 12:11:42 74.19, -2.14 58.56 49.20 69
6 08/10/2023 13:01:08 -73.85, 164.76 121.78 08/10/2023 13:01:12 -73.83, 164.71 121.80 2.75 4
7 08/10/2023 13:51:49 73.55, -27.21 57.93 08/10/2023 13:50:38 73.58, -28.15 57.97 29.99 71
8 08/13/2023 00:14:31 -74.11, -4.17 120.78 08/13/2023 00:15:43 -73.99, -3.62 120.91 21.49 72
9 08/13/2023 01:05:13 73.86, 163.75 58.98 08/13/2023 01:05:07 73.85, 163.74 58.97 1.52 6
10 08/13/2023 01:55:47 -73.35, -27.72 121.53 08/13/2023 01:54:38 -73.43, -29.49 121.44 57.08 69
11 08/15/2023 12:18:33 73.93, -4.71 59.81 08/15/2023 12:19:40 73.93, -4.76 59.80 1.51 67
12 08/15/2023 13:09:16 -73.86, 162.78 120.26 08/15/2023 13:09:04 -73.87, 162.78 120.24 1.66 12
13 08/18/2023 00:22:36 -73.93, -5.69 119.40 08/18/2023 00:23:37 -73.92, -5.78 119.41 2.68 61
14 08/18/2023 01:13:22 73.89, 161.72 60.57 08/18/2023 01:12:59 73.89, 161.81 60.57 2.77 23



Historial Predications of SNOs between FY3D and TERRA
